This is the latest recevied weather packets stored in our database for station/object KD7JB. If no packets are shown the sender has not sent any weather packets the latest 10 day(s).
| Time | Temp. | Humidity | Pressure | Rain* | Wind** | Luminosity | Snow |
|---|---|---|---|---|---|---|---|
| 1777475541 | 8.89° C | 63% | 1183.4 hPa | 0 mm | - | 265 W/m² | - |
| 1777475238 | 8.89° C | 63% | 1183.4 hPa | 0 mm | - | 248 W/m² | - |
| 1777474629 | 8.89° C | 64% | 1183.2 hPa | 0 mm | - | 219 W/m² | - |
| 1777473721 | 8.33° C | 65% | 1183.1 hPa | 0 mm | - | 175 W/m² | - |
| 1777473112 | 7.78° C | 65% | 1183.1 hPa | 0 mm | - | 146 W/m² | - |
| 1777472809 | 7.78° C | 65% | 1183.1 hPa | 0 mm | - | 133 W/m² | - |
| 1777472505 | 7.78° C | 66% | 1182.8 hPa | 0 mm | - | 120 W/m² | - |
| 1777472203 | 7.78° C | 66% | 1182.9 hPa | 0 mm | - | 107 W/m² | - |
| 1777469775 | 6.11° C | 70% | 1182.7 hPa | 0 mm | - | 34 W/m² | - |
| 1777468865 | 5.56° C | 72% | 1182.5 hPa | 0 mm | - | 21 W/m² | - |
| 1777468562 | 5.56° C | 72% | 1182.5 hPa | 0 mm | - | 18 W/m² | - |
| 1777467955 | 5.56° C | 74% | 1182.5 hPa | 0 mm | - | 12 W/m² | - |
| 1777467346 | 5.56° C | 74% | 1182.5 hPa | 0 mm | - | 7 W/m² | - |
| 1777465220 | 5.56° C | 74% | 1182.3 hPa | 0 mm | - | 0 W/m² | - |
| 1777464915 | 5.56° C | 73% | 1182.2 hPa | 0 mm | - | 0 W/m² | - |
| 1777462784 | 5.56° C | 74% | 1182 hPa | 0 mm | - | 0 W/m² | - |
| 1777462479 | 5.56° C | 74% | 1181.9 hPa | 0 mm | - | 0 W/m² | - |
| 1777462177 | 5.56° C | 74% | 1182 hPa | 0 mm | - | 0 W/m² | - |
| 1777461873 | 5.56° C | 74% | 1181.9 hPa | 0 mm | - | 0 W/m² | - |
| 1777461570 | 5.56° C | 73% | 1182.2 hPa | 0 mm | - | 0 W/m² | - |
| 1777461265 | 5.56° C | 73% | 1181.8 hPa | 0 mm | - | 0 W/m² | - |
| 1777460961 | 5.56° C | 73% | 1182 hPa | 0 mm | - | 0 W/m² | - |
| 1777460657 | 5.56° C | 73% | 1181.8 hPa | 0 mm | - | 0 W/m² | - |
| 1777460352 | 5.56° C | 73% | 1181.6 hPa | 0 mm | - | 0 W/m² | - |
| 1777459746 | 5.56° C | 73% | 1181.7 hPa | 0 mm | - | 0 W/m² | - |
* Rain latest hour (hover to see other rain measurements)
** Current wind speed in m/s (hover to see current wind gust speed)